Location: Olsztyn
(53.7767°N, 20.4765°E)
Time: 06:45:59
(UTC+01:00)

Transit 4A - Pass Details

Date: 05 October 2022
Orbit: 871 x 972 km, 66.8° (Epoch: 06 December)

Event Time Altitude Azimuth Distance (km) Brightness Sun altitude
Exits shadow 23:15:53 12° 40° (NE) 2,461 10.3 -39.1°
Drops below altitude 10° 23:16:12 10° 40° (NE) 2,576 10.4 -39.2°
Sets 23:18:41 0° 42° (NE) 3,507 11.2 -39.3°
